Regional Weather Roundup
Issued by NWS

Home | Current Version | Previous Version | Text Only | Print | Product List | Glossary Off
Versions: 1 2 3 4 5 6 7 8 9 10 11 12 13 14 15 16 17 18 19 20 21 22 23 24 25 26 27 28 29 30 31 32 33 34 35 36 37 38 39 40 41 42 43 44 45 46 47 48 49 50

000
ASUS44 KMEG 231110
RWRTN
TENNESSEE HOURLY STATE WEATHER ROUNDUP
NATIONAL WEATHER SERVICE MEMPHIS TN
500 AM CST TUE JAN 23 2018

TNZ002-004-019-021-049-052-054-088>092-231200-
WEST TENNESSEE

CITY           SKY/WX    TMP DP  RH WIND       PRES   REMARKS
MEMPHIS INTL   FAIR      43  31  62 NW15      29.95R
NWS MEMPHIS      N/A     43 N/A N/A MISG        N/A
JACKSON        FAIR      42  30  62 W14G23    29.93R
DYERSBURG      FAIR      40  29  64 W12       29.94R WCI  33
SOMERVILLE     CLOUDY    45  30  57 W8        29.92R
COVINGTON      PTCLDY    41  30  65 NW10      29.95R
UNION CITY     CLOUDY    41  30  65 W13G21    29.91R
BOLIVAR        CLOUDY    43  30  61 SW7       29.92R
PARIS          MOCLDY    39  28  65 W8G16     29.88R WCI  34
HUNTINGDON     PTCLDY    41  28  60 W13G20    29.89R
LEXINGTON      CLEAR     43  28  56 W10G20    29.90R
SELMER         CLEAR     39  28  65 SW7G13    29.91R WCI  34
SAVANNAH       PTCLDY    41  30  65 SW7       29.92R
$$

TNZ008-025-027-028-033-062-065-066-231200-
NORTH MIDDLE TENNESSEE

CITY           SKY/WX    TMP DP  RH WIND       PRES   REMARKS
NASHVILLE      CLOUDY    46  27  47 SW9       29.87R
PORTLAND       CLOUDY    45  30  57 W9        29.83R
CLARKSVILLE    CLOUDY    43  26  51 W14G22    29.85R
SMYRNA         CLOUDY    43  29  57 S3        29.89
COOKEVILLE     CLEAR     43  30  61 SW8G15    29.86R
GALLATIN       CLOUDY    46  28  49 SW9G18    29.88R
CROSSVILLE     FAIR      40  27  59 W10G22    29.84R WCI  33
$$

TNZ061-075-076-078-094-096-097-231200-
SOUTH MIDDLE TENNESSEE

CITY           SKY/WX    TMP DP  RH WIND       PRES   REMARKS
FAYETTEVILLE   PTCLDY    39  30  70 SW3       29.91R
TULLAHOMA      PTCLDY    39  28  65 S3        29.89R
WINCHESTER     MOCLDY    41  28  60 VRB3      29.91R
MCMINNVILLE    PTCLDY    41  28  60 SW7G14    29.88R
COLUMBIA       CLOUDY    43  28  56 SW9G17    29.88R
SHELBYVILLE    CLEAR     41  28  60 SW8       29.90R
$$

TNZ017-018-042-046-047-231200-
NORTHEAST TENNESSEE

CITY           SKY/WX    TMP DP  RH WIND       PRES   REMARKS
TRI CITIES     CLOUDY    53  45  74 SW14      29.76R
ELIZABETHTON   CLOUDY    54  45  71 W8G14     29.77R
$$

TNZ012-013-036-069-073-074-231200-
CENTRAL EAST TENNESSEE

CITY           SKY/WX    TMP DP  RH WIND       PRES   REMARKS
KNOXVILLE      FAIR      47  33  58 SW14      29.83R
DOWNTOWN KNOXV CLEAR     50  32  50 W12       29.84R
GATLINBURG     MOCLDY    52  34  50 W13       29.80R
JACKSBORO      CLEAR     46  28  49 W8G17     29.85R
$$

TNZ083-085-099-231200-
SOUTHEAST TENNESSEE

CITY           SKY/WX    TMP DP  RH WIND       PRES   REMARKS
CHATTANOOGA    FAIR      46  28  49 SW6       29.90R
DAYTON         SUNNY     45  34  65 SW8       29.88R
$$

SKY/WX REPORTED AS FAIR MEANS FEW OR NO CLOUDS BELOW
12 THOUSAND FEET.




USA.gov is the U.S. government's official web portal to all federal, state and local government web resources and services.